Home > Weather > Multan > Past weeks

Flag for Pakistan Past Weather in Multan, Pakistan — Yesterday and Last 2 Weeks

Now
79 °F

Broken clouds.


Feels Like: 82 °F
Forecast: 83 / 102 °F
Wind: 5 mph from North

Location: Multan Airport

Current Time: Aug 28, 2016 at 7:40:21 AM

Latest Report: Aug 28, 2016 at 6:55 AM


Visibility: 2 mi

Pressure: 29.77 "Hg

Humidity: 89%

Dew Point: 75 °F

Location of MultanLocation

Past Weather in Multan — Graph

°F

Multan Temperature Yesterday

Maximum temperature yesterday: 100 °F (at 2:55 PM)
Minimum temperature yesterday: 77 °F (at 5:55 PM)
Average temperature yesterday: 87 °F

High & Low Weather Summary for the Past Weeks

 TemperatureHumidityPressure
High102 °F (Aug 20, 12:55 PM)94% (Aug 27, 6:55 PM)29.77 "Hg (Aug 27, 6:55 PM)
Low77 °F (Aug 27, 5:55 PM)42% (Aug 19, 3:00 PM)29.39 "Hg (Aug 16, 3:55 PM)
Average91 °F64%29.55 "Hg
* Reported Aug 13 11:50 PM — Aug 28 5:55 AM, Multan, Weather by CustomWeather, © 2016

Note: Actual official high and low records may vary slightly from our data, if they occured in-between our weather recording intervals... More about our weather records

Advertising

Multan Weather History for the Previous 24 Hours

Scroll right to see more
 ConditionsComfort  
Time TempWeatherWind HumidityBarometerVisibility
5:55 AM
Sun, Aug 28
79 °FMore clouds than sun.No wind89%29.74 "Hg2 mi
4:55 AM77 °FMostly cloudy.No wind94%29.74 "Hg2 mi
4:00 AM77 °FMostly cloudy.5 mph89%29.71 "Hg2 mi
2:52 AM77 °FMostly cloudy.7 mph83%29.71 "Hg2 mi
1:55 AM77 °FMostly cloudy.7 mph89%29.71 "Hg2 mi
12:55 AM79 °FMostly cloudy.5 mph89%29.71 "Hg2 mi
11:55 PM
Sat, Aug 27
79 °FMostly cloudy.No wind89%29.74 "Hg2 mi
10:55 PM79 °FDrizzle. Mostly cloudy.7 mph94%29.77 "Hg2 mi
9:55 PM79 °FDrizzle. Mostly cloudy.7 mph89%29.77 "Hg2 mi
8:55 PM79 °FThunderstorms. Mostly cloudy.5 mph94%29.74 "Hg2 mi
7:55 PM79 °FThunderstorms. Mostly cloudy.No wind89%29.74 "Hg2 mi
6:55 PM77 °FThunderstorms. Partly cloudy.9 mph94%29.71 "Hg2 mi
5:55 PM77 °FThunderstorms. Broken clouds.7 mph89%29.68 "Hg2 mi
4:53 PM79 °FThunderstorms. More clouds than sun.29 mph84%29.65 "Hg1 mi
3:55 PM100 °FScattered clouds.No wind45%29.59 "Hg2 mi
2:55 PM100 °FScattered clouds.5 mph45%29.62 "Hg2 mi
1:56 PM97 °FScattered clouds.No wind47%29.65 "Hg2 mi
1:00 PM97 °FThunderstorms. Partly sunny.No wind56%29.68 "Hg2 mi
11:58 AM95 °FPartly sunny.5 mph60%29.68 "Hg2 mi
11:05 AM95 °FScattered clouds.No wind60%29.71 "Hg2 mi
10:10 AM91 °FPassing clouds.No wind67%29.71 "Hg2 mi
8:51 AM90 °FClear.No wind75%29.71 "Hg2 mi
7:52 AM88 °FPassing clouds.5 mph75%29.71 "Hg2 mi
Weather by CustomWeather, © 2016

See weather overviewHow to use our weather pages